www.pogodaiklimat.ru

Погода и климат >> Архив погоды >> Австрия >> Аллентштайг


ПОГОДА в Аллентштайге

  • Прогноз погоды в Аллентштайге
  • Монитор погоды в Аллентштайге

АРХИВ ПОГОДЫ в Аллентштайге

Время (UTC), дата Ветер
(напр.,м/с)
 
Видим.   Явления Облачность Т
(С)
Тd
(С)
f
(%)
Тe
(С)
Тes
(С)
Комфортность P
(гПа)
Po
(гПа)
Тmin
(С)
Tmax
(С)
R
(мм)
R24
(мм)
S
(см)
10 15.08 ЮВ 3 н/о н/о +19.9 +9.0 49 +21 +21 комфорт 1014.9 946.3
11 15.08 ЮВ 2 н/о н/о +20.2 +9.0 48 +22 +22 комфорт 1014.4 945.9
12 15.08 В 1 70 км 9/3 1500 м
[Cu hum Ci fib]
+21.2 +8.4 44 +22 +32 комфорт 1013.7 945.5
13 15.08 З 1 н/о н/о +22.0 +6.9 38 +23 +23 комфорт 1013.2 945.1
14 15.08 ЮЗ 2 н/о н/о +22.5 +5.9 34 +23 +23 комфорт 1012.7 944.8
15 15.08 З 2 70 км 9/5 1500 м
[Cu Sc Ac lent Ci fib]
+22.2 +7.8 40 +23 +25 комфорт 1012.7 944.8
16 15.08 З 3 н/о н/о +21.1 +7.9 43 +22 +22 комфорт 1013.0 944.8
17 15.08 З 3 н/о н/о +20.2 +8.1 46 +22 +22 комфорт 1013.3 944.9
18 15.08 ЮЗ 1 70 км 9/4 1500 м
[Sc Ac As Ci fib]
+18.8 +9.6 55 +21 +21 комфорт 1013.9 945.2 +22.8
19 15.08 З 1 н/о н/о +17.9 +10.4 61 +19 +19 1014.7 945.7
20 15.08 З 2 н/о н/о +16.3 +11.1 71 +16 +16 1015.6 946.2
21 15.08 З 2 н/о н/о +15.7 +11.2 75 +16 +16 1016.0 946.4
22 15.08 З 1 н/о н/о +15.5 +11.3 76 +16 +16 1016.4 946.7
23 15.08 СЗ 2 н/о н/о +15.1 +11.2 78 +15 +15 1016.5 946.7
00 16.08 ЮЗ 1 н/о н/о +14.8 +11.7 82 +15 +15 1016.5 946.7 0.0
01 16.08 ЮЗ 2 н/о в посл. час осадки н/о +14.2 +12.6 90 +14 +14 1016.6 946.7 1
02 16.08 З 3 н/о н/о +13.8 +12.4 91 +13 +13 1016.6 946.6
03 16.08 З 2 н/о в посл. час осадки н/о +13.5 +11.9 90 +13 +13 1017.1 946.9 1
04 16.08 З 3 н/о н/о +13.8 +12.0 89 +13 +13 1017.4 947.3
05 16.08 З 2 15 км 9/3 900 м
[Sc Ac lent Ci sp]
+14.2 +12.0 87 +14 +14 1017.3 947.3
06 16.08 З 4 н/о {ливн. осадки} н/о +15.9 +12.4 80 +15 +15 1017.3 947.7 +13.5 +19.0 1
07 16.08 З 3 н/о н/о +15.9 +12.0 78 +15 +15 1017.7 948.1
08 16.08 СЗ 4 н/о н/о +16.2 +11.4 73 +15 +15 1018.1 948.5
09 16.08 СЗ 4 н/о н/о +17.0 +11.7 71 +17 +17 1018.1 948.7
10 16.08 СЗ 4 н/о н/о +16.3 +12.1 76 +16 +16 1018.3 948.7
11 16.08 СЗ 3 н/о н/о +18.2 +12.2 68 +19 +19 1017.3 948.2
12 16.08 З 4 30 км {ливн. осадки} 9/6 600 м
[Cu Sc Ac lent Ci sp]
+17.5 +12.2 71 +17 +20 1017.7 948.5 0.0
13 16.08 СЗ 2 н/о в посл. час осадки н/о +17.1 +12.8 76 +17 +17 1017.5 948.2 0.1
14 16.08 З 2 н/о н/о +18.5 +11.6 64 +20 +20 1016.9 947.9 0.0
15 16.08 З 2 30 км в посл. час ливневой дождь 6/5 750 м
[Cu Sc Ac lent Ci sp]
+16.9 +10.0 64 +17 +19 1017.5 948.1
16 16.08 З 1 н/о н/о +16.8 +11.0 69 +18 +18 1017.4 948.0
17 16.08 СЗ 1 н/о н/о +17.8 +11.0 64 +19 +19 1017.2 948.0
18 16.08 С 1 30 км {ливн. осадки} 5/1 750 м
[Cu hum Ac lent Ci fib]
+16.8 +11.6 71 +18 +18 1017.4 948.0 +19.6 0.1
19 16.08 СВ 1 н/о н/о +15.0 +11.2 78 +16 +16 1018.4 948.5
20 16.08 Ю 2 н/о н/о +14.1 +10.9 81 +14 +14 1018.8 948.6
21 16.08 Ю 2 н/о н/о +13.9 +10.7 81 +13 +13 1018.7 948.5
22 16.08 Ю 2 н/о н/о +13.7 +10.6 82 +13 +13 1018.4 948.2
23 16.08 Ю 2 н/о н/о +13.4 +10.8 84 +13 +13 1018.3 948.0
00 17.08 Ю 2 н/о н/о +11.9 +10.2 89 +11 +11 1018.5 947.8
01 17.08 Ю 2 н/о н/о +11.1 +10.0 93 +10 +10 1018.5 947.6
02 17.08 Ю 2 н/о н/о +10.8 +9.6 92 +9 +9 1017.9 947.0
03 17.08 ЮЗ 1 н/о н/о +10.5 +9.1 91 +10 +10 1018.0 947.0
04 17.08 Ю 1 н/о н/о +9.8 +8.7 93 +9 +9 1018.1 946.9
05 17.08 штиль 0 >70 км 8/0
[Ac lent Ci sp]
+11.5 +9.6 88 +11 +11 1017.7 947.0
06 17.08 штиль 0 >70 км 9/0
[Ac lent Ci sp]
+13.7 +10.5 81 +13 +15 1017.2 947.1 +9.6
07 17.08 В 3 н/о н/о +15.9 +11.6 76 +15 +15 1016.7 947.1
08 17.08 ЮВ 2 н/о н/о +16.9 +11.0 68 +17 +17 1016.4 947.1
09 17.08 ЮВ 2 >70 км 9/0
[Ac lent Ci sp]
+17.9 +11.5 66 +18 +24 1016.1 947.1
10 17.08 ЮВ 2 н/о н/о +18.2 +11.8 66 +19 +19 1016.1 947.1
11 17.08 ЮВ 1 н/о н/о +19.9 +10.9 56 +22 +22 комфорт 1015.3 946.7 0.0
12 17.08 штиль 0 >70 км 9/1 900 м
[Cu hum Ac lent Ci sp]
+21.8 +11.0 50 +24 +33 комфорт 1014.5 946.4
13 17.08 В 2 н/о н/о +21.4 +10.6 50 +23 +23 комфорт 1014.4 946.2
14 17.08 В 1 н/о н/о +21.8 +12.2 54 +24 +24 комфорт 1014.0 946.0
15 17.08 штиль 0 >70 км 9/1 1050 м
[Cu hum Ac lent Ci sp]
+21.6 +12.4 56 +24 +27 комфорт 1013.8 945.8
16 17.08 ЮВ 1 н/о н/о +21.7 +12.4 55 +24 +24 комфорт 1013.6 945.6
17 17.08 В 2 н/о н/о +21.4 +13.1 59 +24 +24 комфорт 1013.5 945.4
18 17.08 ЮВ 1 >70 км 9/0
[Ac lent Ci fib]
+19.9 +13.5 67 +23 +23 комфорт 1013.9 945.5 +22.2
19 17.08 В 1 н/о н/о +19.0 +12.7 67 +21 +21 комфорт 1014.2 945.5
20 17.08 ЮВ 1 н/о н/о +18.2 +12.8 71 +20 +20 1014.0 945.2
21 17.08 Ю 1 н/о н/о +18.0 +12.9 72 +19 +19 1014.0 945.1
22 17.08 Ю 1 н/о н/о +17.7 +12.3 71 +19 +19 1013.7 944.8
23 17.08 ЮЗ 2 н/о н/о +17.4 +12.5 73 +18 +18 1013.7 944.7
00 18.08 ЮЗ 2 н/о н/о +17.9 +11.9 68 +18 +18 1013.8 944.9
01 18.08 Ю 2 н/о н/о +17.9 +12.0 68 +18 +18 1013.6 944.7 0.0
02 18.08 Ю 2 н/о н/о +17.8 +12.1 69 +18 +18 1013.3 944.4 0.0
03 18.08 ЮЗ 1 н/о н/о +17.5 +12.2 71 +19 +19 1013.3 944.3 0.0
04 18.08 Ю 2 н/о н/о +17.6 +12.1 70 +18 +18 1013.0 944.1
05 18.08 Ю 2 >70 км 8/0
[Ac lent Ci fib]
+17.7 +12.1 70 +18 +18 1013.0 944.1
06 18.08 Ю 1 >70 км {дождь} 9/0
[Ac lent Ci fib]
+18.9 +12.5 66 +21 +22 комфорт 1012.8 944.2 +17.2 0.0
07 18.08 ЮВ 1 н/о н/о +20.1 +14.4 70 +23 +23 комфорт 1012.5 944.2
08 18.08 ЮВ 2 н/о н/о +20.8 +13.8 64 +24 +24 комфорт 1012.4 944.3
09 18.08 Ю 2 >70 км 3/0
[Ac lent Ci fib]
+24.3 +14.8 55 +27 +37 жарко 1011.3 944.1
10 18.08 ЮЗ 2 н/о н/о +27.3 +12.7 40 +29 +29 жарко 1010.7 944.1
11 18.08 З 2 н/о н/о +28.6 +12.6 37 +30 +30 жарко 1010.1 943.8
12 18.08 З 3 >70 км 3/1 1500 м
[Cu hum Ac lent Ci fib]
+29.4 +12.1 34 +30 +39 жарко 1009.7 943.6
13 18.08 З 4 н/о н/о +29.7 +12.9 36 +31 +31 жарко 1009.6 943.6
14 18.08 З 4 н/о н/о +30.0 +12.7 35 +31 +31 жарко 1009.5 943.5
15 18.08 З 1 >70 км 1/1 1500 м
[Cu hum]
+29.9 +13.0 35 +31 +36 жарко 1009.4 943.5
16 18.08 З 2 н/о н/о +29.5 +12.5 35 +31 +31 жарко 1009.6 943.5
17 18.08 ЮЗ 1 н/о н/о +28.8 +12.3 36 +30 +30 жарко 1009.6 943.4
18 18.08 штиль 0 >70 км 1/1 1500 м
[Cu hum]
+26.2 +13.1 44 +28 +28 жарко 1009.8 943.1 +30.2
19 18.08 ЮВ 2 н/о н/о +23.1 +13.1 53 +26 +26 жарко 1010.6 943.1
20 18.08 ЮВ 2 н/о н/о +24.0 +12.0 47 +26 +26 жарко 1010.6 943.3
21 18.08 ЮВ 2 н/о н/о +23.0 +11.8 49 +25 +25 комфорт 1010.8 943.2
22 18.08 Ю 3 н/о н/о +22.1 +12.2 53 +24 +24 комфорт 1010.8 943.0
23 18.08 ЮВ 2 н/о н/о +22.2 +12.2 53 +25 +25 комфорт 1010.3 942.6
00 19.08 В 1 н/о н/о +20.2 +12.2 60 +23 +23 комфорт 1010.7 942.5
01 19.08 С 1 н/о н/о +18.8 +12.2 65 +21 +21 комфорт 1011.1 942.6
02 19.08 СЗ 3 н/о н/о +18.2 +12.8 71 +19 +19 1012.5 943.8
03 19.08 СЗ 3 н/о н/о +18.2 +13.2 73 +19 +19 1013.1 944.3
04 19.08 З 3 н/о н/о +17.6 +14.1 80 +18 +18 1014.7 945.7
05 19.08 СЗ 4 40 км 6/5 2000 м
[Sc Ac lent]
+18.3 +14.9 81 +19 +19 1016.0 947.1
06 19.08 СЗ 4 40 км 5/3 2000 м
[Sc Ac As Ci fib]
+19.2 +14.6 75 +21 +21 комфорт 1016.4 947.7 +17.6
07 19.08 СЗ 4 н/о н/о +20.3 +13.9 67 +23 +23 комфорт 1016.2 947.7
08 19.08 СЗ 2 н/о н/о +20.2 +13.1 64 +23 +23 комфорт 1016.8 948.2
09 19.08 З 2 >70 км 6/1 1050 м
[Cu hum Ac As Ci fib]
+22.3 +14.1 60 +26 +33 жарко 1016.4 948.4
10 19.08 СЗ 2 н/о н/о +22.8 +14.3 59 +26 +26 жарко 1016.7 948.7
11 19.08 СЗ 2 н/о н/о +24.0 +13.0 50 +26 +26 жарко 1016.3 948.6
12 19.08 С 1 >70 км 5/3 1350 м
[Cu hum Ac und Ci fib]
+25.0 +14.3 51 +27 +37 жарко 1016.1 948.7
13 19.08 З 2 н/о н/о +25.7 +13.7 47 +28 +28 жарко 1016.1 948.8
14 19.08 З 2 н/о н/о +24.3 +14.7 55 +27 +27 жарко 1016.6 949.0
15 19.08 СЗ 3 >70 км 9/1 1500 м
[Cu hum Ac As]
+22.7 +14.8 61 +26 +28 жарко 1017.2 949.2
16 19.08 СЗ 2 н/о н/о +22.8 +14.7 60 +26 +26 жарко 1016.9 948.9
17 19.08 З 2 н/о н/о +22.0 +14.3 62 +25 +25 комфорт 1017.3 949.1
18 19.08 З 2 60 км слаб. дождь 9/3 2000 м
[Sc Ac As]
+21.0 +14.1 65 +25 +25 комфорт 1017.6 949.2 +26.3 0.0
19 19.08 З 2 н/о н/о +20.7 +13.8 65 +24 +24 комфорт 1018.8 950.2
20 19.08 ЮЗ 1 н/о н/о +19.7 +13.1 66 +22 +22 комфорт 1019.0 950.2
21 19.08 С 1 н/о н/о +18.1 +13.5 74 +19 +19 1019.7 950.5
22 19.08 СЗ 1 н/о н/о +17.2 +13.2 77 +18 +18 1019.9 950.4
23 19.08 СЗ 1 н/о н/о +16.0 +13.0 82 +17 +17 1020.3 950.5
00 20.08 З 2 н/о н/о +16.5 +13.1 80 +17 +17 1019.9 950.3
01 20.08 СЗ 2 н/о н/о +16.3 +13.2 82 +16 +16 1020.1 950.4
02 20.08 СЗ 2 н/о н/о +15.6 +13.2 86 +15 +15 1020.6 950.7
03 20.08 СЗ 1 н/о н/о +14.9 +13.3 90 +15 +15 1020.5 950.5
04 20.08 СЗ 1 н/о н/о +14.5 +13.2 92 +15 +15 1021.1 950.9
05 20.08 штиль 0 35 км 9/4 1500 м
[Sc Ac trans Ci fib]
+16.0 +13.4 85 +16 +16 1021.1 951.3
06 20.08 З 1 40 км 9/1 1500 м
[Sc Ac As Ci fib]
+16.8 +14.3 85 +18 +19 1020.7 951.2 +14.5
07 20.08 Ю 1 н/о н/о +17.7 +14.8 83 +19 +19 1020.5 951.2
08 20.08 В 1 н/о н/о +19.4 +15.3 77 +22 +22 комфорт 1020.0 951.1
09 20.08 В 1 45 км 9/9 600 м
[Cu Sc]
+20.5 +15.4 73 +24 +26 комфорт 1019.9 951.3
10 20.08 В 1 н/о н/о +21.5 +15.3 68 +25 +25 комфорт 1019.6 951.2
11 20.08 В 3 н/о н/о +23.0 +14.7 60 +27 +27 душно 1018.8 950.8
12 20.08 ЮВ 2 45 км 9/6 1050 м
[Cu Sc Ac As Ci fib]
+23.8 +14.9 57 +27 +30 жарко 1018.1 950.3
13 20.08 В 3 н/о н/о +23.5 +15.2 60 +26 +26 жарко 1018.1 950.2
14 20.08 ЮВ 3 н/о н/о +23.9 +15.7 60 +27 +27 жарко 1017.7 950.0
15 20.08 В 3 45 км 9/4 1050 м
[Cu Sc Ac As]
+23.3 +16.0 64 +28 +29 душно 1017.4 949.6
16 20.08 ЮВ 2 н/о н/о +23.2 +16.4 66 +28 +28 душно 1017.1 949.3
17 20.08 СВ 1 н/о н/о +23.0 +16.6 67 +28 +28 душно 1017.1 949.2
18 20.08 С 1 35 км 9/0
[Ac As Ci fib]
+21.8 +16.9 74 +26 +26 душно 1017.0 948.9 +24.2
19 20.08 СЗ 2 н/о н/о +20.7 +16.8 78 +25 +25 комфорт 1017.6 949.2
20 20.08 З 2 н/о н/о +20.2 +16.5 79 +24 +24 комфорт 1017.7 949.2
21 20.08 СЗ 3 н/о н/о +18.7 +16.8 89 +20 +20 1018.2 949.3
22 20.08 З 5 н/о н/о +17.3 +16.8 97 +17 +17 1020.3 950.9 7
23 20.08 З 4 н/о в посл. час осадки н/о +16.1 +15.7 97 +15 +15 1021.0 951.3 2
00 21.08 СЗ 6 н/о ливневой дождь н/о +14.0 +13.5 97 +12 +12 1022.5 952.1 10
01 21.08 СЗ 5 н/о н/о +13.4 +13.0 97 +11 +11 1024.2 953.6 0.0
02 21.08 СЗ 5 н/о в посл. час осадки н/о +12.7 +12.3 97 +10 +10 1025.2 954.3 0.1
03 21.08 СЗ 4 н/о {осадки} н/о +12.6 +12.1 97 +11 +11 1026.3 955.3 0.1
04 21.08 СЗ 4 н/о н/о +12.5 +11.9 96 +10 +10 1026.4 955.4
05 21.08 СЗ 3 8000 м 10/8 300 м
[Sc Ac As]
+12.5 +11.9 96 +11 +11 1027.4 956.3
06 21.08 СЗ 3 8000 м {дождь} 10/9 300 м
[Sc Ac As]
+12.6 +11.7 94 +11 +11 1028.5 957.4 +12.4 10
07 21.08 З 3 н/о н/о +12.7 +11.8 94 +11 +11 1028.9 957.7
08 21.08 СЗ 3 н/о н/о +13.2 +11.5 89 +12 +12 1028.7 957.7
09 21.08 СЗ 4 20 км слаб. дождь 10/9 750 м
[Sc Ac As]
+13.7 +11.6 87 +12 +12 1028.8 957.9
10 21.08 СЗ 4 20 км слаб. дождь 10/9 750 м
[Sc Ac As]
+13.7 +11.6 87 +12 +12 1028.8 957.9
11 21.08 СЗ 3 н/о осадки н/о +14.0 +11.8 87 +13 +13 1029.0 958.1 0.1
12 21.08 СЗ 1 20 км слаб. дождь 10/5 450 м
[Cu Sc Ac As]
+14.7 +11.8 83 +15 +17 1028.3 957.7 0.1
13 21.08 СЗ 2 н/о в посл. час осадки н/о +15.8 +11.4 75 +16 +16 1028.0 957.6 0.0
14 21.08 СЗ 1 н/о в посл. час осадки н/о +15.5 +12.9 84 +16 +16 1028.0 957.6 0.2
15 21.08 С 2 25 км {дождь} 10/6 600 м
[Cu Sc Ac As]
+16.6 +10.9 69 +17 +17 1027.6 957.5
16 21.08 С 1 н/о н/о +16.6 +12.0 74 +17 +17 1027.6 957.4
17 21.08 С 1 н/о н/о +16.9 +11.4 70 +18 +18 1027.5 957.4
18 21.08 штиль 0 30 км {дождь} 5/1 600 м
[Cu Sc Ac lent Ci fib]
+14.3 +11.2 82 +14 +14 1028.0 957.3 +17.0 0.3
19 21.08 С 1 н/о н/о +13.1 +10.7 85 +13 +13 1028.6 957.5
20 21.08 С 1 н/о н/о +12.5 +11.2 92 +12 +12 1028.9 957.7
21 21.08 С 1 н/о н/о +11.7 +10.8 94 +11 +11 1029.1 957.7
22 21.08 С 1 н/о н/о +11.2 +10.4 95 +11 +11 1029.4 957.8
23 21.08 СВ 1 н/о н/о +11.2 +10.4 95 +11 +11 1029.1 957.5
00 22.08 С 2 н/о н/о +10.8 +10.1 95 +9 +9 1028.7 957.1
01 22.08 СЗ 1 н/о н/о +10.4 +9.9 97 +10 +10 1028.4 956.7
02 22.08 СЗ 2 н/о н/о +10.1 +9.6 97 +8 +8 1028.4 956.6
03 22.08 С 1 н/о н/о +10.1 +9.7 97 +9 +9 1028.1 956.3
04 22.08 З 1 н/о в посл. час осадки н/о +10.1 +9.6 97 +9 +9 1028.2 956.4 0.1
05 22.08 СВ 1 25 км 9/9 600 м
[Sc Ac As Ci fib]
+11.0 +10.0 94 +11 +11 1027.4 955.9
06 22.08 штиль 0 20 км 9/9 600 м
[Sc]
+12.3 +10.6 89 +12 +12 1027.3 956.2 +9.8
07 22.08 С 3 н/о н/о +13.3 +11.1 87 +12 +12 1026.7 955.8
08 22.08 СВ 3 н/о н/о +14.3 +11.5 83 +13 +13 1026.4 955.8
09 22.08 СВ 3 20 км 10/10 540 м
[Cu Sc]
+15.4 +11.6 78 +15 +15 1026.1 955.8
10 22.08 С 2 н/о н/о +16.0 +11.8 76 +16 +16 1026.0 955.8

 

Местоположение метеостанции Аллентштайг (Австрия): широта 48.68 долгота 15.37 высота над уровнем моря 607 м.

В архиве по умолчанию представлена погода в Аллентштайге за последнюю неделю. Архивные данные за месяц целиком и за предыдущие месяцы, начиная с января 2011 года, Вы можете получить, выбрав интересующий диапазон дат из раскрывающегося списка и нажав кнопку "Ввод!".


*Определитесь, кто Вы:
робот инопланетянин человек

Внимание! Время в таблицах - всемирное. Для получения местного времени необходимо прибавить поправку, которая равна 1 ч.

Смотрите также архив погоды в соседних городах и на ближайших метеорологических станциях:

Погода в Цветле (Австрия) (14 км)
Погода в Гарс-ам-Кампе (Австрия) (25 км)
Погода в Лангенлойсе (Австрия) (34 км)
Погода в Кремс-ан-дер-Донау (Австрия) (34 км)
Погода в Вайтре (Австрия) (36 км)
Погода в Личау (Австрия) (39 км)
Погода в Яуерлинге (Австрия) (39 км)
Погода в Бернкопфе (Австрия) (42 км)
Погода в Реце (Австрия) (44 км)
Погода в Церкви Мыслова (Чехия) (56 км)

Пояснения к столбцам:

Ветер - указаны скорость ветра в м/с - средняя за 10 мин, порывы в срок и между сроками (в фигурных скобках) и направление, откуда дует ветер: С - северный, СВ - северо-восточный, В - восточный, ЮВ - юго-восточный, Ю - южный, ЮЗ - юго-западный, З - западный, СЗ - северо-западный.
Видимость - горизонтальная дальность видимости в метрах или километрах. При видимости от 1 до 10 км при отсутствии осадков обычно наблюдается дымка, при ухудшении видимости до 1 км и менее - туман. В сухую погоду видимость может ухудшаться дымом, пылью или мглою.
Явления - указаны атмосферные явления, наблюдавшиеся в срок или в последний час перед сроком; фигурными скобками обозначены явления, наблюдавшиеся между сроками (за 1-3 часа до срока); квадратными скобками обозначены град или гололедные отложения с указанием их диаметра в мм.
Облачность - указаны через наклонную черту общая и нижняя облачность в баллах и высота нижней границы облаков в метрах; квадратными скобками обозначены формы облаков: Ci - перистые, Cs - перисто-слоистые, Cc - перисто-кучевые, Ac - высококучевые, As - высокослоистые, Sc - слоисто-кучевые, Ns - слоисто-дождевые, Cu - кучевые, Cb - кучево-дождевые. Подробнее классификацию облаков см. в Атласе облаков (PDF).
T - Температура воздуха - температура, измеренная на высоте 2 м над землей.
Td - Температура точки росы - температура, при понижении до которой содержащийся в воздухе водяной пар достигнет насыщения.
f - Относительная влажность воздуха - влажноcть воздуха, измеренная на высоте 2 м над землей.
Te - Эффективная температура - температура, которую ощущает одетый по сезону человек в тени. Характеристика душности погоды. При расчете учитывается влияние влажности воздуха и скорости ветра на теплоощущения человека.
Tes - Эффективная температура на солнце - температура, которую ощущает человек, с поправкой на солнечный нагрев. Характеристика знойности погоды. Зависит от высоты солнца над горизонтом, облачности и скорости ветра. Ночью, в пасмурную погоду, а также при ветре 12 м/с и более поправка равна нулю.
P - Атмосферное давление - приведенное к уровню моря атмосферное давление.
Po - Атмосферное давление - измеренное на уровне метеостанции атмосферное давление.
Tmin - Минимальная температура - минимум температуры воздуха на высоте 2 м над землей.
Tmax - Максимальная температура - максимум температуры воздуха на высоте 2 м над землей.
R - Количество осадков - Количество выпавших осадков за период времени, мм. При наведении курсора мыши на число - период времени, за который выпало указанное количество осадков.
R24 - Количество осадков - Количество выпавших осадков за 24 часа, мм.
S - Снежный покров - Высота снежного покрова, см. При наведении курсора мыши на число - состояние снежного покрова и степень покрытия местности в баллах.